Exeter, United Kingdom

7:08 PM BST on June 27, 2017 (GMT +0100)
Exeter

Weather History for EGTE - October, 2011

Change the Weather History Date:

Monday, October 10, 2011

  Actual Average Record
Temperature  
Mean Temperature 61 °F -  
Max Temperature 65 °F 56 °F 69 °F (2005)
Min Temperature 57 °F 43 °F 35 °F (2016)
Degree Days  
Heating Degree Days 4    
Growing Degree Days 11 (Base 50)    
Moisture  
Dew Point 56 °F    
Average Humidity 79    
Maximum Humidity 88    
Minimum Humidity 72    
Precipitation  
Precipitation 0.00 in - - ()
Sea Level Pressure  
Sea Level Pressure 30.15 in    
Wind  
Wind Speed 13 mph ()    
Max Wind Speed 21 mph    
Max Gust Speed 32 mph    
Visibility 6.2 miles    
Events      
Averages and records for this station are not official NWS values.
T = Trace of Precipitation, MM = Missing Value Source: Averaged Metar Reports

Daily Weather History Graph

Daily Weather History Graph

Search for Another Location

Airport or City:

Trip Planner

Search our weather history database for the weather conditions in past years. The results will help you decide how hot, cold, wet, or windy it might be!

Date:

Astronomy

Oct. 10, 2011 Rise Set
Actual Time 7:27 AM BST 6:32 PM BST
Civil Twilight 6:54 AM BST 7:05 PM BST
Nautical Twilight 6:16 AM BST 7:43 PM BST
Astronomical Twilight 5:38 AM BST 8:21 PM BST
Moon 5:31 PM BST (10/10) 5:51 AM BST (10/10)
Length of Visible Light 12h 11m
Length of Day
11h 05m
Waxing Gibbous, 98% of the Moon is Illuminated
Oct 10
Waxing Gibbous
Oct 12
Full
Oct 20
Last Quarter
Oct 26
New
Nov 2
First Quarter

Hourly Weather History & Observations

Time (BST) Temp. Dew Point Humidity Pressure Visibility Wind Dir Wind Speed Gust Speed Precip Events Conditions
12:20 AM 60.8 °F 57.2 °F 88% 30.15 in 6.2 mi West 8.1 mph - N/A   Mostly Cloudy
12:50 AM 61 °F 58 °F 85%  in - Calm Calm - -  
1:20 AM 60.8 °F 57.2 °F 88% 30.15 in 6.2 mi West 13.8 mph - N/A   Mostly Cloudy
3:50 AM 60 °F 57 °F 87%  in - Calm Calm - -  
3:50 AM 60.8 °F 57.2 °F 88% 30.12 in 6.2 mi WNW 15.0 mph - N/A   Mostly Cloudy
4:20 AM 60.8 °F 55.4 °F 82% 30.12 in 6.2 mi West 11.5 mph - N/A   Mostly Cloudy
4:50 AM 60.8 °F 55.4 °F 82% 30.12 in 6.2 mi West 15.0 mph 26.5 mph N/A   Mostly Cloudy
5:20 AM 60.8 °F 55.4 °F 82% 30.12 in 6.2 mi West 13.8 mph 25.3 mph N/A   Mostly Cloudy
5:50 AM 60.8 °F 55.4 °F 82% 30.12 in 6.2 mi West 16.1 mph - N/A   Mostly Cloudy
6:20 AM 60.8 °F 55.4 °F 82% 30.12 in 6.2 mi West 15.0 mph - N/A   Mostly Cloudy
6:50 AM 61 °F 56 °F 78%  in - Calm Calm - -  
6:50 AM 60.8 °F 55.4 °F 82% 30.12 in 6.2 mi West 13.8 mph - N/A   Mostly Cloudy
7:20 AM 62.6 °F 55.4 °F 77% 30.12 in 6.2 mi West 16.1 mph - N/A   Mostly Cloudy
7:50 AM 62.6 °F 55.4 °F 77% 30.12 in 6.2 mi West 15.0 mph - N/A   Mostly Cloudy
8:20 AM 62.6 °F 55.4 °F 77% 30.12 in 6.2 mi West 15.0 mph - N/A   Mostly Cloudy
8:50 AM 62.6 °F 55.4 °F 77% 30.12 in 6.2 mi West 18.4 mph - N/A   Mostly Cloudy
9:20 AM 62.6 °F 55.4 °F 77% 30.15 in 6.2 mi West 16.1 mph - N/A   Light Drizzle
9:50 AM 62 °F 56 °F 77%  in - Calm Calm - -  
9:50 AM 62.6 °F 55.4 °F 77% 30.15 in 6.2 mi West 16.1 mph - N/A   Mostly Cloudy
10:20 AM 62.6 °F 57.2 °F 82% 30.15 in 6.2 mi West 15.0 mph - N/A   Mostly Cloudy
10:50 AM 62.6 °F 57.2 °F 82% 30.15 in 6.2 mi West 13.8 mph - N/A   Mostly Cloudy
11:20 AM 64.4 °F 57.2 °F 77% 30.15 in 6.2 mi West 17.3 mph - N/A   Mostly Cloudy
11:50 AM 64.4 °F 57.2 °F 77% 30.15 in 6.2 mi West 17.3 mph - N/A   Mostly Cloudy
12:20 PM 64.4 °F 57.2 °F 77% 30.15 in 6.2 mi West 16.1 mph - N/A   Mostly Cloudy
12:50 PM 64 °F 57 °F 72%  in - Calm Calm - -  
12:50 PM 64.4 °F 57.2 °F 77% 30.15 in 6.2 mi West 18.4 mph - N/A   Mostly Cloudy
1:20 PM 64.4 °F 57.2 °F 77% 30.15 in 6.2 mi West 20.7 mph - N/A   Mostly Cloudy
1:50 PM 64.4 °F 57.2 °F 77% 30.15 in 6.2 mi West 18.4 mph - N/A   Mostly Cloudy
2:20 PM 66.2 °F 57.2 °F 73% 30.15 in 6.2 mi West 17.3 mph - N/A   Mostly Cloudy
2:50 PM 64.4 °F 57.2 °F 77% 30.15 in 6.2 mi West 20.7 mph 32.2 mph N/A   Mostly Cloudy
3:20 PM 64.4 °F 57.2 °F 77% 30.15 in 6.2 mi West 17.3 mph - N/A   Mostly Cloudy
3:50 PM 63 °F 56 °F 72%  in - Calm Calm - -  
3:50 PM 62.6 °F 57.2 °F 82% 30.15 in 6.2 mi West 17.3 mph - N/A   Mostly Cloudy
4:20 PM 62.6 °F 57.2 °F 82% 30.15 in 6.2 mi West 19.6 mph 32.2 mph N/A   Mostly Cloudy
4:50 PM 62.6 °F 57.2 °F 82% 30.15 in 6.2 mi West 16.1 mph - N/A   Mostly Cloudy
5:20 PM 62.6 °F 55.4 °F 77% 30.15 in 6.2 mi West 16.1 mph 27.6 mph N/A   Mostly Cloudy
5:50 PM 62.6 °F 55.4 °F 77% 30.15 in 6.2 mi West 11.5 mph - N/A   Mostly Cloudy
6:20 PM 62.6 °F 55.4 °F 77% 30.15 in 6.2 mi West 11.5 mph - N/A   Mostly Cloudy
6:50 PM 61 °F 56 °F 77%  in - Calm Calm - -  
6:50 PM 62.6 °F 55.4 °F 77% 30.15 in 6.2 mi West 11.5 mph - N/A   Mostly Cloudy
7:20 PM 62.6 °F 55.4 °F 77% 30.18 in 6.2 mi West 12.7 mph - N/A   Mostly Cloudy
7:50 PM 62.6 °F 55.4 °F 77% 30.18 in 6.2 mi West 13.8 mph - N/A   Mostly Cloudy
8:20 PM 62.6 °F 55.4 °F 77% 30.18 in 6.2 mi West 15.0 mph - N/A   Mostly Cloudy
8:50 PM 62.6 °F 55.4 °F 77% 30.18 in 6.2 mi WSW 13.8 mph - N/A   Mostly Cloudy
9:20 PM 62.6 °F 55.4 °F 77% 30.18 in 6.2 mi West 16.1 mph - N/A   Mostly Cloudy
9:50 PM 61 °F 55 °F 74%  in - Calm Calm - -  
9:50 PM 60.8 °F 55.4 °F 82% 30.18 in 6.2 mi West 16.1 mph - N/A   Mostly Cloudy
10:20 PM 62.6 °F 55.4 °F 77% 30.18 in 6.2 mi WSW 13.8 mph - N/A   Mostly Cloudy
10:50 PM 60.8 °F 53.6 °F 77% 30.18 in 6.2 mi West 15.0 mph - N/A   Mostly Cloudy
11:20 PM 60.8 °F 53.6 °F 77% 30.15 in 6.2 mi WSW 12.7 mph - N/A   Mostly Cloudy
11:50 PM 60.8 °F 55.4 °F 82% 30.18 in 6.2 mi West 13.8 mph - N/A   Mostly Cloudy